User: anonymous   Login
Location: Castelbiague
(43.0361°N, 0.9246°E)
Time: 01:30:03
(UTC+00:00)
Language:

GEOS 3 Rocket - Orbit

View from above orbital plane
View from above orbital plane
View from above satellite
View from above satellite

Ground track
Ground track

The orbit data is extracted from the following two-line orbital elements,

1 07735U 75027B   21269.50965893 -.00000110  00000-0  29089-4 0  9993
2 07735 114.9728 196.1816 0035537 182.2192 177.8735 14.24649975412710
Epoch (UTC): 26 September 2021 12:13:54
Eccentricity: 0.0035537
inclination: 114.9728°
perigee height: 784 km
apogee height: 835 km
right ascension of ascending node: 196.1816°
argument of perigee: 182.2192°
revolutions per day: 14.24649975
mean anomaly at epoch: 177.8735°
orbit number at epoch: 41271

The dashed part of the orbit path shows where the satellite is in the earth's shadow,  

DLR